Weather History for Sanford, ME

Change the Weather History Date:

Monday, February 4, 2013

  Actual Average Record
Temperature  
Mean Temperature 22 °F -  
Max Temperature 28 °F 31 °F 48 °F (2006)
Min Temperature 17 °F 11 °F -9 °F (2001)
Degree Days  
Heating Degree Days 42    
Moisture  
Dew Point 3 °F    
Average Humidity 43    
Maximum Humidity 80    
Minimum Humidity 24    
Precipitation  
Precipitation 0.00 in - - ()
Sea Level Pressure  
Sea Level Pressure 29.71 in    
Wind  
Wind Speed 11 mph (West)    
Max Wind Speed 24 mph    
Max Gust Speed 37 mph    
Visibility 10 miles    
Events      
Averages and records for this station are not official NWS values.
T = Trace of Precipitation, MM = Missing Value Source: NWS Daily Summary

Daily Weather History Graph

Daily Weather History Graph

Search for Another Location

Airport:

Trip Planner

Search our weather history database for the weather conditions in past years. The results will help you decide how hot, cold, wet, or windy it might be!

Date:

Astronomy

Feb. 04, 2013 Rise Set
Actual Time 6:55 AM EST 4:59 PM EST
Civil Twilight 6:25 AM EST 5:29 PM EST
Nautical Twilight 5:51 AM EST 6:03 PM EST
Astronomical Twilight 5:17 AM EST 6:36 PM EST
Moon 1:29 AM EST (2/4) 11:17 AM EST (2/4)
Length of Visible Light 11h 04m
Length of Day
10h 03m
Last Quarter, 37% of the Moon is Illuminated
Feb 4
Last Quarter
Feb 10
New
Feb 17
First Quarter
Feb 25
Full
Mar 4
Last Quarter

Hourly Weather History & Observations

Time (EST) Temp. Windchill Dew Point Humidity Pressure Visibility Wind Dir Wind Speed Gust Speed Precip Events Conditions
12:15 AM 24.8 °F 19.1 °F 8.6 °F 50% 29.67 in 10.0 mi NW 4.6 mph - N/A   Overcast
12:35 AM 24.8 °F 19.1 °F 6.8 °F 46% 29.67 in 10.0 mi WNW 4.6 mph - N/A   Overcast
12:55 AM 23.0 °F 18.4 °F 10.4 °F 59% 29.68 in 10.0 mi West 3.5 mph - N/A   Overcast
1:15 AM 23.0 °F 18.4 °F 8.6 °F 54% 29.68 in 10.0 mi West 3.5 mph - N/A   Overcast
1:35 AM 23.0 °F 18.4 °F 10.4 °F 59% 29.68 in 10.0 mi West 3.5 mph - N/A   Overcast
1:55 AM 23.0 °F 17.0 °F 8.6 °F 54% 29.68 in 10.0 mi WNW 4.6 mph - N/A   Overcast
2:15 AM 23.0 °F 15.8 °F 10.4 °F 59% 29.68 in 10.0 mi WNW 5.8 mph - N/A   Overcast
2:35 AM 23.0 °F 17.0 °F 12.2 °F 63% 29.68 in 10.0 mi West 4.6 mph - N/A   Overcast
2:55 AM 23.0 °F 17.0 °F 8.6 °F 54% 29.67 in 10.0 mi WNW 4.6 mph - N/A   Overcast
3:15 AM 23.0 °F 17.0 °F 15.8 °F 74% 29.66 in 10.0 mi WNW 4.6 mph - N/A   Overcast
3:35 AM 21.2 °F 13.6 °F 10.4 °F 63% 29.66 in 10.0 mi West 5.8 mph - N/A   Overcast
3:55 AM 21.2 °F 12.6 °F 15.8 °F 80% 29.66 in 10.0 mi West 6.9 mph - N/A   Overcast
4:15 AM 21.2 °F 11.7 °F 10.4 °F 63% 29.66 in 10.0 mi WNW 8.1 mph - N/A   Mostly Cloudy
5:55 AM 21.2 °F 10.9 °F 8.6 °F 58% 29.67 in 10.0 mi West 9.2 mph 16.1 mph N/A   Clear
6:15 AM 19.4 °F 10.4 °F 12.2 °F 74% 29.68 in 10.0 mi West 6.9 mph - N/A   Clear
6:35 AM 19.4 °F 9.5 °F 8.6 °F 63% 29.67 in 10.0 mi West 8.1 mph - N/A   Partly Cloudy
6:55 AM 19.4 °F 8.6 °F 12.2 °F 74% 29.68 in 10.0 mi West 9.2 mph - N/A   Mostly Cloudy
7:15 AM 19.4 °F 7.9 °F 8.6 °F 63% 29.68 in 10.0 mi West 10.4 mph - N/A   Scattered Clouds
7:35 AM 19.4 °F 7.2 °F 12.2 °F 74% 29.69 in 10.0 mi West 11.5 mph - N/A   Clear
7:55 AM 21.2 °F 10.1 °F 8.6 °F 58% 29.69 in 10.0 mi West 10.4 mph - N/A   Clear
8:15 AM 21.2 °F 9.5 °F 10.4 °F 63% 29.69 in 10.0 mi West 11.5 mph 16.1 mph N/A   Clear
8:36 AM 23.0 °F 11.1 °F 8.6 °F 54% 29.69 in 10.0 mi West 12.7 mph 20.7 mph N/A   Clear
8:55 AM 24.8 °F 12.4 °F 8.6 °F 50% 29.69 in 10.0 mi WNW 15.0 mph 20.7 mph N/A   Clear
9:15 AM 24.8 °F 10.3 °F 8.6 °F 50% 29.69 in 10.0 mi WNW 20.7 mph 27.6 mph N/A   Partly Cloudy
9:35 AM 24.8 °F 11.1 °F 6.8 °F 46% 29.69 in 10.0 mi WNW 18.4 mph 27.6 mph N/A   Partly Cloudy
9:55 AM 24.8 °F 11.1 °F 6.8 °F 46% 29.69 in 10.0 mi WNW 18.4 mph 25.3 mph N/A   Partly Cloudy
10:15 AM 24.8 °F 10.7 °F 3.2 °F 40% 29.70 in 10.0 mi WNW 19.6 mph 27.6 mph N/A   Partly Cloudy
10:35 AM 24.8 °F 11.5 °F 5.0 °F 43% 29.70 in 10.0 mi West 17.3 mph 23.0 mph N/A   Partly Cloudy
10:55 AM 26.6 °F 15.2 °F 1.4 °F 34% 29.70 in 10.0 mi WNW 13.8 mph 25.3 mph N/A   Partly Cloudy
11:16 AM 26.6 °F 13.1 °F 3.2 °F 37% 29.70 in 10.0 mi WNW 19.6 mph 27.6 mph N/A   Partly Cloudy
11:35 AM 26.6 °F 12.4 °F 3.2 °F 37% 29.68 in 10.0 mi WNW 21.9 mph 27.6 mph N/A   Scattered Clouds
11:55 AM 26.6 °F 13.8 °F 3.2 °F 37% 29.68 in 10.0 mi West 17.3 mph 25.3 mph N/A   Mostly Cloudy
12:15 PM 26.6 °F 15.2 °F 3.2 °F 37% 29.68 in 10.0 mi West 13.8 mph 26.5 mph N/A   Scattered Clouds
12:35 PM 26.6 °F 15.2 °F 1.4 °F 34% 29.68 in 10.0 mi WNW 13.8 mph 23.0 mph N/A   Clear
12:55 PM 26.6 °F 14.3 °F 3.2 °F 37% 29.67 in 10.0 mi WNW 16.1 mph 26.5 mph N/A   Mostly Cloudy
1:15 PM 26.6 °F 14.7 °F 1.4 °F 34% 29.67 in 10.0 mi WNW 15.0 mph 25.3 mph N/A   Mostly Cloudy
1:35 PM 28.4 °F 16.2 °F 1.4 °F 31% 29.67 in 10.0 mi West 17.3 mph 24.2 mph N/A   Scattered Clouds
1:55 PM 28.4 °F 15.1 °F -2.2 °F 27% 29.67 in 10.0 mi West 20.7 mph 28.8 mph N/A   Overcast
2:15 PM 28.4 °F 16.2 °F -0.4 °F 29% 29.67 in 10.0 mi West 17.3 mph 33.4 mph N/A   Overcast
2:35 PM 28.4 °F 16.2 °F -2.2 °F 27% 29.68 in 10.0 mi West 17.3 mph 31.1 mph N/A   Mostly Cloudy
2:55 PM 28.4 °F 14.4 °F -0.4 °F 29% 29.68 in 10.0 mi West 23.0 mph 36.8 mph N/A   Partly Cloudy
3:15 PM 26.6 °F 11.7 °F -2.2 °F 29% 29.69 in 10.0 mi West 24.2 mph 35.7 mph N/A   Partly Cloudy
3:36 PM 26.6 °F 12.4 °F -2.2 °F 29% 29.69 in 10.0 mi West 21.9 mph 32.2 mph N/A   Partly Cloudy
3:55 PM 26.6 °F 15.7 °F 1.4 °F 34% 29.70 in 10.0 mi West 12.7 mph 28.8 mph N/A   Partly Cloudy
4:15 PM 26.6 °F 14.3 °F -2.2 °F 29% 29.69 in 10.0 mi WNW 16.1 mph 26.5 mph N/A   Clear
4:35 PM 26.6 °F 15.7 °F -2.2 °F 29% 29.70 in 10.0 mi West 12.7 mph - N/A   Clear
4:55 PM 26.6 °F 13.1 °F -5.8 °F 24% 29.70 in 10.0 mi West 19.6 mph 24.2 mph N/A   Clear
5:15 PM 24.8 °F 11.1 °F -5.8 °F 26% 29.71 in 10.0 mi West 18.4 mph 32.2 mph N/A   Clear
5:35 PM 24.8 °F 12.4 °F -4.0 °F 28% 29.73 in 10.0 mi West 15.0 mph 27.6 mph N/A   Clear
5:55 PM 24.8 °F 10.3 °F -5.8 °F 26% 29.73 in 10.0 mi West 20.7 mph 31.1 mph N/A   Clear
6:15 PM 24.8 °F 12.4 °F -4.0 °F 28% 29.74 in 10.0 mi West 15.0 mph 26.5 mph N/A   Clear
6:35 PM 23.0 °F 12.4 °F -4.0 °F 31% 29.75 in 10.0 mi West 10.4 mph 17.3 mph N/A   Clear
6:55 PM 23.0 °F 7.6 °F -4.0 °F 31% 29.76 in 10.0 mi West 21.9 mph 34.5 mph N/A   Clear
7:15 PM 23.0 °F 9.2 °F -5.8 °F 28% 29.77 in 10.0 mi West 17.3 mph 27.6 mph N/A   Clear
7:35 PM 21.2 °F 6.8 °F -5.8 °F 30% 29.78 in 10.0 mi West 17.3 mph 32.2 mph N/A   Clear
7:55 PM 21.2 °F 8.3 °F -5.8 °F 30% 29.79 in 10.0 mi West 13.8 mph 27.6 mph N/A   Clear
8:15 PM 21.2 °F 6.4 °F -5.8 °F 30% 29.80 in 10.0 mi West 18.4 mph 23.0 mph N/A   Clear
8:35 PM 21.2 °F 7.8 °F -4.0 °F 33% 29.80 in 10.0 mi West 15.0 mph 21.9 mph N/A   Clear
8:55 PM 21.2 °F 5.6 °F -5.8 °F 30% 29.81 in 10.0 mi West 20.7 mph 26.5 mph N/A   Clear
9:15 PM 21.2 °F 7.8 °F -4.0 °F 33% 29.82 in 10.0 mi West 15.0 mph 25.3 mph N/A   Clear
10:15 PM 19.4 °F 7.2 °F -5.8 °F 33% 29.84 in 10.0 mi West 11.5 mph - N/A   Clear
10:35 PM 19.4 °F 5.5 °F -2.2 °F 39% 29.84 in 10.0 mi West 15.0 mph - N/A   Clear
10:55 PM 19.4 °F 6.0 °F -4.0 °F 36% 29.84 in 10.0 mi West 13.8 mph 18.4 mph N/A   Clear
11:15 PM 17.6 °F 5.0 °F -2.2 °F 42% 29.85 in 10.0 mi West 11.5 mph - N/A   Clear
11:35 PM 17.6 °F 6.4 °F -2.2 °F 42% 29.85 in 10.0 mi West 9.2 mph 18.4 mph N/A   Clear
11:55 PM 17.6 °F 6.4 °F -2.2 °F 42% 29.86 in 10.0 mi West 9.2 mph - N/A   Clear